Regional Weather Roundup
Issued by NWS

Home | Current Version | Previous Version | Graphics & Text | Print | Product List | Glossary On
Versions: 1 2 3 4 5 6 7 8 9 10 11 12 13 14 15 16 17 18 19 20 21 22 23 24 25 26 27 28 29 30 31 32 33 34 35 36 37 38 39 40 41 42 43 44 45 46 47 48 49 50
000
ASUS45 KPSR 280100
RWRAZ

PRELIMINARY ARIZONA REGIONAL HOURLY WEATHER ROUNDUP
NATIONAL WEATHER SERVICE PHOENIX AZ
600 PM MST SAT DEC 27 2014

NOTE: FAIR INDICATES FEW OR NO CLOUDS BELOW 12,000 FEET WITH NO
SIGNIFICANT WEATHER AND/OR OBSTRUCTIONS TO VISIBILITY.

AZZ001>003-036-280200-
NORTHWEST ARIZONA

CITY           SKY/WX    TMP DP  RH WIND       PRES   REMARKS
KINGMAN        PTCLDY    30  10  43 CALM      30.31R
$$

AZZ004>008-015-016-018-280200-
NORTH CENTRAL ARIZONA

CITY           SKY/WX    TMP DP  RH WIND       PRES   REMARKS
GRAND CANYON   PTCLDY    22  11  62 CALM      30.26R
PRESCOTT       CLEAR     34   9  35 CALM      30.25R
FLAGSTAFF      NOT AVBL
PAGE           PTCLDY    33   7  33 CALM      30.30R
$$

AZZ009>014-017-280200-
NORTHEAST ARIZONA

CITY           SKY/WX    TMP DP  RH WIND       PRES   REMARKS
WINSLOW        NOT AVBL
SAINT JOHNS    CLEAR     26   9  48 CALM      30.23R
WINDOW ROCK    PTCLDY    20   9  62 CALM      30.24R
$$

AZZ023-280200-
GREATER PHOENIX AREA

CITY           SKY/WX    TMP DP  RH WIND       PRES   REMARKS
PHOENIX        PTCLDY    55  16  21 W9        30.24S
GLENDALE       PTCLDY    54  21  28 SW6       30.27R
LUKE AFB       CLEAR     51  22  32 SW8       30.26R
DEER VALLEY    PTCLDY    51  15  23 W5        30.24R
SCOTTSDALE     FAIR      53  15  22 CALM      30.26R
MESA-GATEWAY   CLEAR     52  18  25 W10       30.26S
CHANDLER       CLEAR     54  19  26 W8        30.25
$$

AZZ027-028-280200-
SOUTHWEST MARICOPA COUNTY AND PINAL COUNTY

CITY           SKY/WX    TMP DP  RH WIND       PRES   REMARKS
CASA GRANDE    CLEAR     48  18  29 CALM      30.26R
$$

AZZ503-504-507>509-280200-
SOUTHEAST ARIZONA

CITY           SKY/WX    TMP DP  RH WIND       PRES   REMARKS
TUCSON         CLEAR     48  21  34 NW8       30.25R
DAVIS-MONTHAN  CLEAR     45  23  41 NW10      30.23R
NOGALES        PTCLDY    40   9  28 N7        30.20R
SIERRA VISTA   PTCLDY    38   9  30 N5        30.21R WCI  34
SAFFORD        CLEAR     42  17  36 W5        30.22R
$$

AZZ020-021-025-026-031-280200-
SOUTHWEST ARIZONA

CITY           SKY/WX    TMP DP  RH WIND       PRES   REMARKS
YUMA           NOT AVBL
$$

CAZ031-033-041-043-047-048-061-280200-
SOUTHERN CALIFORNIA

CITY           SKY/WX    TMP DP  RH WIND       PRES   REMARKS
DOWNTOWN L.A.  PTCLDY    57  32  38 W3        30.29R
L.A. AIRPORT   PTCLDY    56  34  43 SW7       30.29F
SAN DIEGO      PTCLDY    59  30  33 NW5       30.30R
BURBANK        PTCLDY    56  27  32 SE6       30.28R
ONTARIO        PTCLDY    55  18  23 W5        30.28R
RIVERSIDE      PTCLDY    56   9  15 N6        30.29R
PALM SPRINGS   PTCLDY    56  13  18 W3        30.33S
EL CENTRO NAS  PTCLDY    53  12  19 W5        30.33R
IMPERIAL       PTCLDY    55  16  21 NW5       30.32R
BLYTHE         PTCLDY    54  12  18 N8        30.32R
$$

NVZ020-UTZ003-280200-
SOUTHERN NEVADA-UTAH

CITY           SKY/WX    TMP DP  RH WIND       PRES   REMARKS
LAS VEGAS      NOT AVBL
SALT LAKE CITY CLOUDY    25  15  66 S7        30.32S WCI  17
$$

NMZ009-TXZ055-280200-
NEW MEXICO-WEST TEXAS

CITY           SKY/WX    TMP DP  RH WIND       PRES   REMARKS
ALBUQUERQUE    PTCLDY    33   8  35 N9        30.22R WCI  25
EL PASO        MOCLDY    42  28  57 NW6       30.21R
$$


........................KEY........................
SKY/WX - SKY CONDITION/WEATHER
TMP    - TEMPERATURE IN FAHRENHEIT
DP     - DEW POINT IN FAHRENHEIT
RH     - RELATIVE HUMIDITY IN PERCENT
WIND   - DIRECTION AND SPEED IN MILES PER HOUR (MPH)
VRB    - VARIABLE WIND DIRECTION
PRES   - MEAN SEA LEVEL PRESSURE IN INCHES OF MERCURY
         F - FALLING PRESSURE   R - RISING PRESSURE
         S - STEADY PRESSURE
VSB    - VISIBILITY IN MILES
HX     - HEAT INDEX IN FAHRENHEIT
WCI    - WIND CHILL INDEX IN FAHRENHEIT
TC     - TEMPERATURE IN CELSIUS WHICH IS ALSO KNOWN AS
         TEMPERATURE IN CENTIGRADE
AFB    - AIR FORCE BASE
         LUKE AFB IS LUKE AIR FORCE BASE
         DAVIS-MONTHAN IS DAVIS-MONTHAN AIR FORCE BASE
NAS    - NAVAL AIR STATION
         EL CENTRO NAS IS EL CENTRO NAVAL AIR STATION
N/A    - NOT AVAILABLE



USA.gov is the U.S. government's official web portal to all federal, state and local government web resources and services.